Location: *
(31.2983°S, 151.4094°E)
Time: 22:15:43
(UTC+00:00)

Cosmos 968 Rocket - Pass Details

Date: 25 August 2019
Orbit: 741 x 771 km, 74.0° (Epoch: 20 September)

Event Time Altitude Azimuth Distance (km) Brightness Sun altitude
Rises 19:03:33 0° 354° (N) 3,223 6.7 -16.8°
Reaches altitude 10° 19:05:56 10° 357° (N) 2,307 6.0 -16.2°
Maximum altitude 19:11:06 62° 77° (ENE) 874 4.1 -15.1°
Drops below altitude 10° 19:16:21 10° 156° (SSE) 2,339 6.3 -14.0°
Sets 19:18:46 0° 159° (SSE) 3,272 7.0 -13.5°
